GW1050 Weather Reports


time (UTC)temp
C
wind
direction
speed
KPH
gust
KPH
rain 1hr
cm
rain 24hr
cm
rain mn
cm
humidity
%
barometer
mb
20260504050409 6 157 0.0 3.2 0.00 0.00 0.00 83 1018.1
20260504045906 6 169 1.6 3.2 0.00 0.00 0.00 84 1018.1
20260504045401 5 162 0.0 3.2 0.00 0.00 0.00 83 1018.1
20260504044858 5 163 0.0 3.2 0.00 0.00 0.00 83 1018.1
20260504044356 5 158 0.0 3.2 0.00 0.00 0.00 83 1018.2
20260504043853 5 168 0.0 0.0 0.00 0.00 0.00 83 1018.2
20260504043350 5 161 0.0 3.2 0.00 0.00 0.00 83 1018.0
20260504042847 5 163 0.0 3.2 0.00 0.00 0.00 83 1018.0
20260504042343 5 183 0.0 3.2 0.00 0.00 0.00 83 1018.1
20260504041840 5 164 0.0 0.0 0.00 0.00 0.00 83 1018.0
20260504041336 5 169 0.0 3.2 0.00 0.00 0.00 83 1017.9
20260504040832 5 166 0.0 0.0 0.00 0.00 0.00 82 1017.9
20260504040330 5 152 0.0 0.0 0.00 0.00 0.00 83 1018.1
20260504035826 5 156 0.0 0.0 0.00 0.00 0.00 83 1018.1
20260504035324 5 159 0.0 0.0 0.00 0.00 0.00 82 1017.8
20260504034820 5 158 0.0 0.0 0.00 0.00 0.00 82 1017.9
20260504034318 5 183 0.0 0.0 0.00 0.00 0.00 82 1018.0
20260504033815 5 159 0.0 0.0 0.00 0.00 0.00 82 1017.7
20260504033313 6 159 0.0 0.0 0.00 0.00 0.00 82 1018.0
20260504032809 6 163 0.0 0.0 0.00 0.00 0.00 82 1018.2
20260504032306 6 159 0.0 0.0 0.00 0.00 0.00 80 1018.0
20260504031803 6 157 0.0 0.0 0.00 0.00 0.00 80 1017.9
20260504031300 6 161 1.6 3.2 0.00 0.00 0.00 80 1018.0
20260504030756 6 159 0.0 0.0 0.00 0.00 0.00 79 1018.0
20260504030254 6 156 0.0 0.0 0.00 0.00 0.00 78 1018.1
20260504025750 6 159 0.0 0.0 0.00 0.00 0.00 78 1018.1
20260504025247 6 159 0.0 3.2 0.00 0.00 0.00 79 1018.1
20260504024744 6 156 0.0 0.0 0.00 0.00 0.00 78 1018.0
20260504024240 6 164 0.0 0.0 0.00 0.00 0.00 77 1018.1
20260504023737 6 161 0.0 0.0 0.00 0.00 0.00 77 1018.0
20260504023233 6 159 0.0 0.0 0.00 0.00 0.00 76 1018.1
20260504022729 6 156 0.0 0.0 0.00 0.00 0.00 76 1018.2
20260504022226 7 159 0.0 0.0 0.00 0.00 0.00 75 1018.2
20260504021723 7 159 0.0 0.0 0.00 0.00 0.00 75 1018.1
20260504021220 7 161 0.0 0.0 0.00 0.00 0.00 73 1018.3
20260504020717 7 154 0.0 3.2 0.00 0.00 0.00 72 1018.3
20260504020214 7 155 0.0 0.0 0.00 0.00 0.00 74 1018.3
20260504015710 7 161 0.0 0.0 0.00 0.00 0.00 73 1018.3
20260504015207 7 163 0.0 0.0 0.00 0.00 0.00 73 1018.0
20260504014702 7 157 0.0 0.0 0.00 0.00 0.00 72 1018.2
20260504014159 8 157 0.0 0.0 0.00 0.00 0.00 72 1018.1
20260504013657 8 159 0.0 0.0 0.00 0.00 0.00 71 1018.0
20260504013154 8 138 3.2 3.2 0.00 0.00 0.00 71 1018.0
20260504012651 8 145 0.0 0.0 0.00 0.00 0.00 71 1017.9
20260504012149 8 160 0.0 0.0 0.00 0.00 0.00 71 1017.9
20260504011645 8 159 0.0 0.0 0.00 0.00 0.00 71 1018.1
20260504011142 8 133 0.0 3.2 0.00 0.00 0.00 70 1017.8
20260504010637 8 149 0.0 0.0 0.00 0.00 0.00 69 1017.8
20260504010134 9 151 3.2 3.2 0.00 0.00 0.00 68 1017.8
20260504005631 9 157 0.0 3.2 0.00 0.00 0.00 68 1018.1
20260504005127 9 167 0.0 0.0 0.00 0.00 0.00 68 1018.1
20260504004626 10 151 1.6 3.2 0.00 0.00 0.00 67 1017.9
20260504004123 10 161 0.0 3.2 0.00 0.00 0.00 67 1017.9
20260504003619 10 162 3.2 3.2 0.00 0.00 0.00 66 1017.7
20260504003115 10 165 0.0 8.0 0.00 0.00 0.00 64 1017.8
20260504002612 11 152 4.8 8.0 0.00 0.00 0.00 63 1017.8
20260504002110 11 152 1.6 3.2 0.00 0.00 0.00 62 1017.9
20260504001608 12 140 3.2 3.2 0.00 0.00 0.00 60 1018.0
20260504001103 12 161 0.0 3.2 0.00 0.00 0.00 57 1017.8
20260504000600 13 214 4.8 11.3 0.00 0.00 0.00 46 1017.8
20260504000058 13 164 3.2 3.2 0.00 0.00 0.00 45 1017.8
20260503235556 13 148 0.0 0.0 0.00 0.00 0.00 45 1017.8
20260503235053 13 167 0.0 3.2 0.00 0.00 0.00 45 1017.7
20260503234550 14 181 1.6 3.2 0.00 0.00 0.00 44 1017.9
20260503234048 14 168 0.0 8.0 0.00 0.00 0.00 44 1017.8
20260503233544 14 161 0.0 11.3 0.00 0.00 0.00 44 1018.0
20260503233041 15 220 8.0 14.5 0.00 0.00 0.00 43 1018.0
20260503232538 15 177 4.8 8.0 0.00 0.00 0.00 42 1018.0
20260503232035 15 162 4.8 8.0 0.00 0.00 0.00 42 1018.0
20260503231533 15 157 1.6 3.2 0.00 0.00 0.00 42 1017.9
20260503231029 15 171 3.2 8.0 0.00 0.00 0.00 41 1018.0
20260503230526 15 173 1.6 8.0 0.00 0.00 0.00 42 1018.0
20260503230024 15 132 4.8 11.3 0.00 0.00 0.00 40 1018.0
20260503225520 15 243 4.8 8.0 0.00 0.00 0.00 40 1018.0
20260503225015 15 148 6.4 14.5 0.00 0.00 0.00 40 1018.1
20260503224514 15 281 9.7 14.5 0.00 0.00 0.00 41 1018.3
20260503224011 16 173 6.4 11.3 0.00 0.00 0.00 40 1018.0
20260503223509 15 208 3.2 19.3 0.00 0.00 0.00 40 1018.2
20260503223004 16 213 6.4 19.3 0.00 0.00 0.00 40 1018.0
20260503222502 16 210 6.4 14.5 0.00 0.00 0.00 40 1018.3
20260503222000 15 168 3.2 19.3 0.00 0.00 0.00 41 1018.2
20260503221458 15 258 4.8 19.3 0.00 0.00 0.00 41 1018.1
20260503220955 15 176 8.0 11.3 0.00 0.00 0.00 40 1018.1
20260503220451 15 299 12.9 22.5 0.00 0.00 0.00 40 1018.2
20260503215948 15 237 11.3 25.7 0.00 0.00 0.00 40 1018.2
20260503215445 15 265 14.5 19.3 0.00 0.00 0.00 39 1018.2
20260503214943 16 329 17.7 25.7 0.00 0.00 0.00 38 1018.4
20260503214440 16 356 9.7 19.3 0.00 0.00 0.00 40 1018.1
20260503213937 16 284 14.5 22.5 0.00 0.00 0.00 39 1018.2
20260503213436 16 121 9.7 25.7 0.00 0.00 0.00 39 1018.0
20260503212932 16 203 11.3 25.7 0.00 0.00 0.00 38 1018.0
20260503212429 16 17 14.5 19.3 0.00 0.00 0.00 41 1018.0
20260503211927 16 186 11.3 25.7 0.00 0.00 0.00 40 1018.0
20260503211423 15 264 9.7 11.3 0.00 0.00 0.00 41 1017.8
20260503210919 16 242 8.0 19.3 0.00 0.00 0.00 38 1018.1
20260503210416 15 175 11.3 14.5 0.00 0.00 0.00 41 1017.9
20260503205916 16 227 4.8 14.5 0.00 0.00 0.00 40 1018.1
20260503205414 16 310 12.9 22.5 0.00 0.00 0.00 40 1018.2
20260503204910 16 168 17.7 29.0 0.00 0.00 0.00 39 1018.2
20260503204407 16 185 4.8 14.5 0.00 0.00 0.00 41 1018.3
20260503203904 15 198 4.8 22.5 0.00 0.00 0.00 41 1018.3
20260503203401 16 331 11.3 14.5 0.00 0.00 0.00 39 1018.5
20260503202858 16 275 16.1 40.2 0.00 0.00 0.00 39 1018.8
20260503202356 16 8 3.2 14.5 0.00 0.00 0.00 40 1018.8
20260503201855 15 191 8.0 22.5 0.00 0.00 0.00 40 1019.0
20260503201351 16 216 9.7 19.3 0.00 0.00 0.00 41 1018.9
20260503200849 16 235 4.8 11.3 0.00 0.00 0.00 42 1018.9
20260503200344 15 171 6.4 29.0 0.00 0.00 0.00 41 1018.9
20260503195842 16 163 6.4 14.5 0.00 0.00 0.00 41 1019.0
20260503195338 15 170 9.7 25.7 0.00 0.00 0.00 40 1019.0
20260503194836 16 224 8.0 22.5 0.00 0.00 0.00 39 1019.1
20260503194331 15 144 8.0 19.3 0.00 0.00 0.00 40 1019.0
20260503193828 15 296 1.6 8.0 0.00 0.00 0.00 42 1019.3
20260503193324 15 160 6.4 11.3 0.00 0.00 0.00 40 1019.5
20260503192820 16 232 8.0 14.5 0.00 0.00 0.00 41 1019.5
20260503192315 16 126 3.2 8.0 0.00 0.00 0.00 42 1019.4
20260503191812 15 270 14.5 33.8 0.00 0.00 0.00 41 1019.6
20260503191309 16 245 8.0 19.3 0.00 0.00 0.00 42 1019.7
20260503190806 16 154 8.0 25.7 0.00 0.00 0.00 40 1019.7
20260503190303 15 252 11.3 19.3 0.00 0.00 0.00 43 1019.8
20260503185800 15 139 12.9 22.5 0.00 0.00 0.00 41 1019.9
20260503185255 15 216 3.2 14.5 0.00 0.00 0.00 43 1020.0
20260503184755 14 209 8.0 11.3 0.00 0.00 0.00 43 1019.9
20260503184252 15 312 17.7 22.5 0.00 0.00 0.00 41 1020.1
20260503183748 16 301 8.0 22.5 0.00 0.00 0.00 41 1020.0
20260503183246 15 280 14.5 25.7 0.00 0.00 0.00 42 1020.2
20260503182743 15 182 8.0 14.5 0.00 0.00 0.00 46 1020.3
20260503182242 13 181 3.2 11.3 0.00 0.00 0.00 45 1020.1
20260503181738 13 315 11.3 25.7 0.00 0.00 0.00 43 1020.3
20260503181235 14 315 4.8 11.3 0.00 0.00 0.00 42 1020.2
20260503180731 14 171 4.8 14.5 0.00 0.00 0.00 42 1020.5
20260503180230 14 204 4.8 11.3 0.00 0.00 0.00 42 1020.5
20260503175726 15 171 8.0 19.3 0.00 0.00 0.00 44 1020.5
20260503175225 14 191 11.3 19.3 0.00 0.00 0.00 43 1020.7
20260503174720 15 291 25.7 45.1 0.00 0.00 0.00 42 1020.8
20260503174218 15 315 12.9 19.3 0.00 0.00 0.00 42 1020.4
20260503173713 15 172 4.8 8.0 0.00 0.00 0.00 43 1020.6
20260503173209 14 131 9.7 14.5 0.00 0.00 0.00 42 1021.0
20260503172706 14 289 14.5 22.5 0.00 0.00 0.00 42 1020.8
20260503172203 14 164 8.0 22.5 0.00 0.00 0.00 41 1020.9
20260503171700 13 303 14.5 19.3 0.00 0.00 0.00 45 1020.8
20260503171157 13 262 6.4 25.7 0.00 0.00 0.00 43 1020.9
20260503170654 14 218 1.6 11.3 0.00 0.00 0.00 43 1021.0
20260503170151 14 255 11.3 14.5 0.00 0.00 0.00 43 1021.0
20260503160112 12 212 6.4 14.5 0.00 0.00 0.00 42 1021.6
20260503150542 11 282 16.1 19.3 0.00 0.00 0.00 45 1022.0
20260503130932 8 186 6.4 14.5 0.00 0.00 0.00 65 1022.3
20260503130430 7 145 1.6 11.3 0.00 0.00 0.00 66 1022.5
20260503110829 0 140 0.0 0.0 0.00 0.00 0.00 97 1021.7
20260503110325 0 161 0.0 0.0 0.00 0.00 0.00 97 1021.7
20260503100252 0 155 0.0 0.0 0.00 0.00 0.00 96 1021.1
20260503090211 0 161 0.0 3.2 0.00 0.00 0.00 95 1021.0
20260503081138 1 157 0.0 0.0 0.00 0.00 0.00 92 1020.9
20260503080634 2 157 0.0 0.0 0.00 0.00 0.00 92 1021.0
20260503080131 1 167 0.0 3.2 0.00 0.00 0.00 92 1021.0
20260503072608 1 149 0.0 0.0 0.00 0.00 0.00 93 1020.7
20260503072106 1 155 0.0 0.0 0.00 0.00 0.00 93 1020.6
20260503071602 1 151 0.0 0.0 0.00 0.00 0.00 93 1020.6
20260503071059 1 159 0.0 3.2 0.00 0.00 0.00 93 1020.7
20260503070555 1 159 0.0 0.0 0.00 0.00 0.00 93 1020.5
20260503055014 1 146 3.2 3.2 0.00 0.00 0.00 93 1020.7
20260503054510 1 169 0.0 0.0 0.00 0.00 0.00 93 1020.8
20260503054008 1 166 1.6 3.2 0.00 0.00 0.00 93 1020.7
20260503053506 1 157 0.0 3.2 0.00 0.00 0.00 93 1020.7